sat.trackr.live / text

‹ back to catalog

LATINSAT A

NORAD 27612 · 2002-058H

PAYLOAD ACTIVE UNKNOWN

§ Identity

Operator
Country
ARGN
Launch date
2002-12-20
Launch site
TYMSC
Launch vehicle
Mass (kg)
RCS (m²)
0.03

External: N2YO · Heavens-Above · Gunter

§ Orbital elements

Epoch: 2026-05-25T01:32:33.270144Z

Period
96.94 min
Inclination
64.5555°
Eccentricity
0.0054262
Mean motion
14.85427081 rev/d
Perigee alt
574.3 km
Apogee alt
650.2 km
Semi-major
6,990.4 km
B*
7.4461e-5
RAAN
33.4273°
Arg perigee
251.4504°
Mean anomaly
108.0704°
Rev number
26,419

§ Raw data

LATINSAT A1 27612U 02058H   26145.06427396  .00000503  00000+0  74461-4 0  99912 27612  64.5555  33.4273 0054262 251.4504 108.0704 14.85427081264194

JSON: /api/v1/satellites/27612 · /tle

For live sub-satellite position, see the globe view (requires WebGL).

§ Visibility from observer

Set your observer location to see the next 7 days of passes ≥ 10°. The values pass through the URL so the page stays shareable.

No JS? Fill the form by hand. The geolocation button needs JavaScript.